Flag for Switzerland Weather past 2 weeks in Zug, Zug, Switzerland

Now
43 °F

Overcast.


Feels Like: 43 °F
Forecast: 34 / 66 °F
Wind: 2 mph from East

Location: Zurich Town / Ville.


UV Index: 3 (Moderate)

Visibility: 9 mi


Pressure: 29.80 "Hg

Humidity: 81%

Dew point: 38 °F

Location of ZugLocation

Historic Weather in Zug

°F

Zug temperature yesterday

Maximum temperature yesterday: 49 °F (at 2:00 PM)
Minimum temperature yesterday: 35 °F (at 9:00 PM)
Average temperature yesterday: 43 °F

Past Weeks' High & Low Weather Summary

 TemperatureHumidityPressure
High67 °F (Apr 11, 5:00 PM)98% (Apr 6, 6:00 AM)30.34 "Hg (Apr 6, 6:00 AM)
Low35 °F (Apr 18, 9:00 PM)25% (Apr 17, 4:00 PM)29.71 "Hg (Apr 4, 7:00 PM)
Average51 °F64%30.09 "Hg
* Reported Apr 4 7:00 PM — Apr 19 7:00 PM, Zug, Weather by CustomWeather, © 2014

Note: Actual official high and low records may vary slightly from our data, if they occured in-between our weather recording intervals... More about our weather records

Advertising

Historic Weather Conditions — Data for Previous 24 hours

 ConditionsComfort  
Time TempWeatherWind HumidityBarometerVisibility
7:00 PM
Apr 19
46 °FCool.2 mph70%29.79 "HgN/A
6:00 PM46 °FCool.3 mph69%29.79 "HgN/A
5:00 PM46 °FCool.5 mph72%29.78 "HgN/A
4:00 PM45 °FCool.5 mph70%29.80 "HgN/A
3:00 PM44 °FQuite cool.5 mph76%29.81 "HgN/A
2:00 PM42 °FOvercast.6 mph77%29.83 "Hg6 mi
1:00 PM41 °FQuite cool.5 mph86%29.84 "HgN/A
12:00 PM40 °FChilly.3 mph88%29.85 "HgN/A
11:00 AM39 °FChilly.3 mph91%29.85 "HgN/A
10:00 AM38 °FChilly.2 mph91%29.86 "HgN/A
9:00 AM36 °FChilly.3 mph95%29.87 "HgN/A
8:00 AM36 °FFog.5 mph95%29.88 "Hg2 mi
7:00 AM36 °FChilly.5 mph96%29.88 "HgN/A
6:00 AM36 °FChilly.3 mph97%29.89 "HgN/A
5:00 AM36 °FChilly.3 mph94%29.89 "HgN/A
4:00 AM36 °FChilly.2 mph94%29.90 "HgN/A
3:00 AM36 °FChilly.3 mph97%29.92 "HgN/A
2:00 AM36 °FChilly.3 mph96%29.95 "HgN/A
1:00 AM35 °FChilly.3 mph97%29.96 "HgN/A
12:00 AM36 °FChilly.3 mph96%29.98 "HgN/A
10:00 PM
Apr 18
35 °FChilly.1 mph96%30.01 "HgN/A
9:00 PM35 °FChilly.2 mph97%30.01 "HgN/A
8:00 PM36 °FLight rain. Overcast.2 mph96%29.99 "Hg2 mi
Weather by CustomWeather, © 2014

See weather overview